TimeSAST,TemperatureF,Dew PointF,Humidity,Sea Level PressureIn,VisibilityMPH,Wind Direction,Wind SpeedMPH,Gust SpeedMPH,PrecipitationIn,Events,Conditions,WindDirDegrees,DateUTC
12:00 AM,71.6,44.6,38,29.95,-9999.0,NW,4.6,-,N/A,,Unknown,310,2012-12-29 22:00:00
1:00 AM,71.6,44.6,38,29.95,-9999.0,SW,3.5,-,N/A,,Clear,220,2012-12-29 23:00:00
2:00 AM,69.8,46.4,43,29.95,-9999.0,SW,6.9,-,N/A,,Clear,220,2012-12-30 00:00:00
3:00 AM,69.8,44.6,40,29.95,-9999.0,SW,6.9,-,N/A,,Clear,230,2012-12-30 01:00:00
4:00 AM,69.8,46.4,43,29.95,-9999.0,SSW,4.6,-,N/A,,Clear,210,2012-12-30 02:00:00
5:00 AM,67,48,40,,25,WSW,4.6,,,,Clear,240,2012-12-30 03:00:00
5:00 AM,66.2,48.2,52,29.95,-9999.0,WSW,3.5,-,N/A,,Clear,240,2012-12-30 03:00:00
6:00 AM,66.2,48.2,52,29.95,-9999.0,SW,4.6,-,N/A,,Clear,230,2012-12-30 04:00:00
6:30 AM,71.6,48.2,43,29.95,-9999.0,SW,3.5,-,N/A,,Clear,230,2012-12-30 04:30:00
7:00 AM,73.4,50.0,44,29.95,-9999.0,SSW,4.6,-,N/A,,Clear,210,2012-12-30 05:00:00
7:43 AM,78.8,48.2,34,29.98,-9999.0,South,4.6,-,N/A,,Clear,180,2012-12-30 05:43:00
8:00 AM,79,48,23,,25,South,5.8,,,,Clear,170,2012-12-30 06:00:00
8:00 AM,77.0,48.2,36,29.98,-9999.0,South,4.6,-,N/A,,Clear,170,2012-12-30 06:00:00
8:19 AM,80.6,48.2,32,29.98,-9999.0,South,4.6,-,N/A,,Clear,170,2012-12-30 06:19:00
9:00 AM,82.4,46.4,28,29.98,-9999.0,South,2.3,-,N/A,,Clear,180,2012-12-30 07:00:00
9:17 AM,87.8,48.2,25,29.98,-9999.0,SE,2.3,-,N/A,,Clear,140,2012-12-30 07:17:00
10:00 AM,89.6,46.4,22,29.98,-9999.0,SE,2.3,-,N/A,,Clear,140,2012-12-30 08:00:00
10:39 AM,95.0,42.8,16,29.95,-9999.0,East,3.5,-,N/A,,Clear,100,2012-12-30 08:39:00
11:00 AM,96,40,8,,25,ENE,2.3,,,,Clear,60,2012-12-30 09:00:00
11:00 AM,95.0,39.2,14,29.95,-9999.0,ENE,1.2,-,N/A,,Clear,60,2012-12-30 09:00:00
12:00 PM,98.6,35.6,11,29.95,-9999.0,WSW,4.6,-,N/A,,Clear,240,2012-12-30 10:00:00
1:00 PM,100.4,32.0,9,29.92,-9999.0,NW,3.5,-,N/A,,Clear,320,2012-12-30 11:00:00
2:00 PM,104,32,4,,25,SW,8.1,,,,Clear,220,2012-12-30 12:00:00
2:00 PM,104.0,32.0,8,29.89,-9999.0,SW,6.9,-,N/A,,Clear,220,2012-12-30 12:00:00
3:00 PM,102.2,32.0,9,29.86,-9999.0,NW,4.6,-,N/A,,Clear,310,2012-12-30 13:00:00
4:00 PM,102.2,33.8,9,29.86,-9999.0,SW,12.7,-,N/A,,Clear,220,2012-12-30 14:00:00
5:00 PM,101,40,6,,25,SSW,17.3,,,,Clear,200,2012-12-30 15:00:00
5:00 PM,100.4,39.2,12,29.83,-9999.0,SSW,17.3,-,N/A,,Clear,200,2012-12-30 15:00:00
6:00 PM,98.6,35.6,11,29.83,-9999.0,SSW,13.8,-,N/A,,Clear,210,2012-12-30 16:00:00
7:00 PM,96.8,37.4,13,29.83,-9999.0,SSW,8.1,-,N/A,,Clear,200,2012-12-30 17:00:00
8:00 PM,90,40,9,,25,South,4.6,,,,Clear,190,2012-12-30 18:00:00
8:00 PM,89.6,39.2,17,29.86,-9999.0,South,3.5,-,N/A,,Clear,190,2012-12-30 18:00:00
9:00 PM,87.8,41.0,19,29.86,-9999.0,South,4.6,-,N/A,,Unknown,190,2012-12-30 19:00:00
10:00 PM,82.4,46.4,28,29.89,-9999.0,WSW,3.5,-,N/A,,Unknown,240,2012-12-30 20:00:00
11:00 PM,82,42,15,,,SSW,6.9,,,,,210,2012-12-30 21:00:00
11:00 PM,80.6,41.0,24,29.89,-9999.0,SSW,6.9,-,N/A,,Unknown,210,2012-12-30 21:00:00